User: anonymous   Login
Location: Asheville, NC
(35.6000°N, 82.5500°W)
Time: 20:53:35
(UTC-05:00)
Language:

CUBEBUG 2 - Orbit

View from above orbital plane
View from above orbital plane
View from above satellite
View from above satellite

Ground track
Ground track

The orbit data is extracted from the following two-line orbital elements,

1 39440U 13066AA  18021.53802638  .00000212  00000-0  36882-4 0  9999
2 39440  97.6108  45.4208 0079473 312.4490  47.0018 14.75600679224293
Epoch (UTC): 21 January 2018 12:54:45
Eccentricity: 0.0079473
inclination: 97.6108°
perigee height: 587 km
apogee height: 699 km
right ascension of ascending node: 45.4208°
argument of perigee: 312.4490°
revolutions per day: 14.75600679
mean anomaly at epoch: 47.0018°
orbit number at epoch: 22429

The dashed part of the orbit path shows where the satellite is in the earth's shadow,  

DLR